Flag for Austria Weather past 2 weeks in Hermagor-Pressegger See, Carinthia, Austria

Now
63 °F

Partly cloudy.


Feels Like: 63 °F
Forecast: 54 / 72 °F
Wind: 2 mph from North

Location: Klagenfurt-Flughafen

Current Time: Jul 23, 2014 at 6:49:32 AM

Latest Report: Jul 23, 2014 at 5:50 AM


Visibility: N/A

Pressure: 29.92 "Hg

Humidity: 100%

Dew point: 63 °F

Location of Hermagor-Pressegger SeeLocation

Historic Weather in Hermagor-Pressegger See — Graph

°F

Hermagor-Pressegger See temperature yesterday

Maximum temperature yesterday: 72 °F (at 1:50 PM)
Minimum temperature yesterday: 59 °F (at 3:50 AM)
Average temperature yesterday: 64 °F

Past Weeks' High & Low Weather Summary

 TemperatureHumidityPressure
High90 °F (Jul 20, 3:20 PM)100% (Jul 10, 2:50 AM)30.21 "Hg (Jul 10, 2:50 AM)
Low54 °F (Jul 11, 5:50 AM)35% (Jul 18, 4:20 PM)29.68 "Hg (Jul 8, 4:50 PM)
Average67 °F76%29.95 "Hg
* Reported Jul 8 5:20 AM — Jul 23 5:50 AM, Hermagor-Pressegger See, Weather by CustomWeather, © 2014

Note: Actual official high and low records may vary slightly from our data, if they occured in-between our weather recording intervals... More about our weather records

Advertising

Hermagor-Pressegger See weather history for previous 24 hours

 ConditionsComfort  
Time TempWeatherWind HumidityBarometerVisibility
5:50 AM
Jul 23
63 °FPartly cloudy.2 mph100%29.92 "HgN/A
5:20 AM63 °FPartly cloudy.2 mph100%29.92 "HgN/A
4:50 AM63 °FPassing clouds.2 mph100%29.92 "HgN/A
4:20 AM63 °FPartly cloudy.5 mph100%29.92 "HgN/A
3:50 AM63 °FRain. Mostly cloudy.6 mph100%29.92 "Hg5 mi
3:20 AM63 °FSprinkles. Passing clouds.2 mph100%29.92 "HgN/A
2:50 AM63 °FRain. Passing clouds.5 mph100%29.92 "HgN/A
2:20 AM63 °FLight rain. Partly cloudy.5 mph100%29.92 "HgN/A
1:50 AM63 °FPartly cloudy.2 mph100%29.92 "HgN/A
6:50 PM
Jul 22
64 °FRain. Broken clouds.1 mph88%29.86 "HgN/A
6:20 PM64 °FLight rain. Broken clouds.2 mph94%29.86 "HgN/A
5:50 PM64 °FLight rain. Broken clouds.1 mph94%29.86 "HgN/A
5:20 PM64 °FLight rain. Broken clouds.2 mph88%29.86 "HgN/A
4:50 PM64 °FRain. Broken clouds.5 mph88%29.83 "HgN/A
4:20 PM66 °FRain showers. Partly sunny.12 mph88%29.83 "HgN/A
3:50 PM72 °FBroken clouds.5 mph73%29.83 "HgN/A
3:20 PM72 °FPartly sunny.3 mph73%29.80 "HgN/A
2:50 PM72 °FPartly sunny.3 mph73%29.83 "HgN/A
2:20 PM72 °FBroken clouds.3 mph73%29.83 "HgN/A
1:50 PM72 °FBroken clouds.2 mph69%29.83 "HgN/A
1:20 PM70 °FBroken clouds.1 mph73%29.83 "HgN/A
12:50 PM70 °FBroken clouds.3 mph73%29.83 "HgN/A
12:20 PM70 °FBroken clouds.2 mph73%29.83 "HgN/A
11:50 AM68 °FSprinkles. Partly sunny.1 mph78%29.83 "HgN/A
11:20 AM66 °FSprinkles. Broken clouds.2 mph83%29.86 "HgN/A
10:50 AM64 °FBroken clouds.5 mph88%29.86 "HgN/A
10:20 AM64 °FBroken clouds.3 mph83%29.86 "HgN/A
9:50 AM63 °FSprinkles. Broken clouds.1 mph88%29.86 "HgN/A
9:20 AM63 °FBroken clouds.1 mph88%29.86 "HgN/A
8:50 AM61 °FBroken clouds.2 mph94%29.86 "HgN/A
8:20 AM61 °FBroken clouds.2 mph94%29.83 "HgN/A
7:50 AM61 °FPartly sunny.2 mph94%29.83 "Hg5 mi
7:20 AM61 °FPartly sunny.2 mph94%29.83 "Hg5 mi
6:50 AM61 °FPartly sunny.1 mph94%29.83 "Hg5 mi
6:20 AM61 °FPartly cloudy.1 mph94%29.83 "Hg5 mi
Weather by CustomWeather, © 2014

See weather overviewHow to use our weather pages